Time,TemperatureF,DewpointF,PressureIn,WindDirection,WindDirectionDegrees,WindSpeedMPH,WindSpeedGustMPH,Humidity,HourlyPrecipIn,Conditions,Clouds,dailyrainin,SoftwareType,DateUTC
2013-02-24 00:00:00,43.0,-99.9,-100.00,SE,136,3.0,-999.0,-999,-99.99,,,-99.99,,2013-02-24 08:00:00,
2013-02-24 01:00:00,43.0,-99.9,-100.00,SSE,152,5.0,-999.0,-999,-99.99,,,-99.99,,2013-02-24 09:00:00,
2013-02-24 02:00:00,43.0,-99.9,-100.00,SSE,155,5.0,-999.0,-999,-99.99,,,-99.99,,2013-02-24 10:00:00,
2013-02-24 03:00:00,43.0,-99.9,-100.00,South,172,7.0,-999.0,-999,-99.99,,,-99.99,,2013-02-24 11:00:00,
2013-02-24 05:00:00,43.0,-99.9,-100.00,South,172,7.0,-999.0,-999,-99.99,,,-99.99,,2013-02-24 13:00:00,
2013-02-24 06:00:00,43.0,-99.9,-100.00,South,170,7.0,-999.0,-999,-99.99,,,-99.99,,2013-02-24 14:00:00,
2013-02-24 06:55:00,43.0,-99.9,-100.00,South,170,7.0,-999.0,-999,-99.99,,,-99.99,,2013-02-24 14:55:00,
2013-02-24 07:00:00,44.0,-99.9,-100.00,South,174,7.0,-999.0,-999,-99.99,,,-99.99,,2013-02-24 15:00:00,
2013-02-24 08:00:00,44.0,-99.9,-100.00,South,173,7.0,-999.0,-999,-99.99,,,-99.99,,2013-02-24 16:00:00,
2013-02-24 10:00:00,47.0,-99.9,-100.00,South,176,9.0,-999.0,-999,-99.99,,,-99.99,,2013-02-24 18:00:00,
2013-02-24 11:00:00,49.0,-99.9,-100.00,South,180,10.0,-999.0,-999,-99.99,,,-99.99,,2013-02-24 19:00:00,
2013-02-24 12:00:00,49.0,-99.9,-100.00,South,183,12.0,-999.0,-999,-99.99,,,-99.99,,2013-02-24 20:00:00,
2013-02-24 13:00:00,48.0,-99.9,-100.00,South,180,12.0,-999.0,-999,-99.99,,,-99.99,,2013-02-24 21:00:00,
2013-02-24 14:00:00,49.0,-99.9,-100.00,South,179,12.0,-999.0,-999,-99.99,,,-99.99,,2013-02-24 22:00:00,
2013-02-24 15:00:00,49.0,-99.9,-100.00,South,183,9.0,-999.0,-999,-99.99,,,-99.99,,2013-02-24 23:00:00,
2013-02-24 16:00:00,49.0,-99.9,-100.00,South,177,8.0,-999.0,-999,-99.99,,,-99.99,,2013-02-25 00:00:00,
2013-02-24 17:00:00,49.0,-99.9,-100.00,South,178,8.0,-999.0,-999,-99.99,,,-99.99,,2013-02-25 01:00:00,
2013-02-24 18:00:00,49.0,-99.9,-100.00,South,177,9.0,-999.0,-999,-99.99,,,-99.99,,2013-02-25 02:00:00,
2013-02-24 19:00:00,49.0,-99.9,-100.00,South,177,8.0,-999.0,-999,-99.99,,,-99.99,,2013-02-25 03:00:00,
2013-02-24 20:00:00,49.0,-99.9,-100.00,South,170,6.0,-999.0,-999,-99.99,,,-99.99,,2013-02-25 04:00:00,
2013-02-24 21:00:00,49.0,-99.9,-100.00,South,177,6.0,-999.0,-999,-99.99,,,-99.99,,2013-02-25 05:00:00,
2013-02-24 23:00:00,48.0,-99.9,-100.00,SSE,160,8.0,-999.0,-999,-99.99,,,-99.99,,2013-02-25 07:00:00,